Location: Roland
(31.1349°N, 85.4372°W)
Time: 19:09:12
(UTC+00:00)

SR - Pass Details

Date: 17 April 2021
Orbit: 573 x 882 km, 66.7° (Epoch: 13 May)

Event Time Altitude Azimuth Distance (km) Brightness Sun altitude
Rises 13:54:26 0° 227° (SW) 3,225 ? 33.9°
Reaches altitude 10° 13:56:56 10° 236° (SW) 2,349 ? 34.4°
Maximum altitude 14:01:55 36° 302° (WNW) 1,293 ? 35.5°
Drops below altitude 10° 14:07:14 10° 8° (N) 2,504 ? 36.6°
Sets 14:10:00 0° 16° (NNE) 3,466 ? 37.2°
